Home > Weather > Santiago de Cuba > Past weeks

Flag for Cuba Past Weather in Santiago de Cuba, Cuba — Yesterday and Last 2 Weeks

Now
86 °F

Scattered clouds.


Feels Like: 95 °F
Forecast: N/A
Wind: 9 mph from Southeast

Location: Santiago De Cuba - Oriente

Current Time: Jul 27, 2016 at 7:10:42 PM

Latest Report: Jul 27, 2016 at 5:50 PM


Visibility: 6 mi

Pressure: 29.95 "Hg

Humidity: 70%

Dew Point: 75 °F

Location of Santiago de CubaLocation

Past Weather in Santiago de Cuba — Graph

°F

Santiago de Cuba Temperature Yesterday

Maximum temperature yesterday: 86 °F (at 9:52 AM)
Minimum temperature yesterday: 75 °F (at 2:50 AM)
Average temperature yesterday: 79 °F

High & Low Weather Summary for the Past Weeks

 TemperatureHumidityPressure
High90 °F (Jul 13, 2:50 PM)100% (Jul 20, 2:51 AM)30.07 "Hg (Jul 20, 2:51 AM)
Low75 °F (Jul 13, 10:50 PM)46% (Jul 19, 10:51 AM)29.95 "Hg (Jul 15, 4:51 PM)
Average81 °F74%30.01 "Hg
* Reported Jul 12 5:50 PM — Jul 27 5:50 PM, Santiago de Cuba, Weather by CustomWeather, © 2016

Note: Actual official high and low records may vary slightly from our data, if they occured in-between our weather recording intervals... More about our weather records

Advertising

Santiago de Cuba Weather History for the Previous 24 Hours

Scroll right to see more
 ConditionsComfort  
Time TempWeatherWind HumidityBarometerVisibility
5:50 PM
Wed, Jul 27
86 °FScattered clouds.9 mph70%29.95 "Hg6 mi
4:50 PM86 °FBroken clouds.12 mph70%29.95 "Hg6 mi
3:51 PM86 °FBroken clouds.12 mph70%29.95 "Hg6 mi
2:50 PM86 °FScattered showers. Scattered clouds.9 mph66%N/A6 mi
1:51 PM88 °FScattered clouds.13 mph66%29.98 "HgN/A
12:50 PM88 °FScattered clouds.9 mph62%29.98 "HgN/A
11:50 AM86 °FScattered clouds.9 mph62%30.01 "HgN/A
10:50 AM88 °FScattered clouds.3 mph55%30.01 "HgN/A
9:50 AM86 °FPassing clouds.3 mph59%30.01 "HgN/A
8:50 AM82 °FPassing clouds.5 mph70%30.01 "HgN/A
7:51 AM79 °FPassing clouds.6 mph79%29.98 "HgN/A
6:50 AM75 °FPassing clouds.7 mph89%29.98 "HgN/A
5:51 AM75 °FPassing clouds.6 mph89%29.95 "HgN/A
4:51 AM75 °FPassing clouds.6 mph83%29.95 "Hg6 mi
3:51 AM75 °FPassing clouds.6 mph83%29.95 "Hg6 mi
2:50 AM75 °FPassing clouds.6 mph89%29.95 "Hg6 mi
1:51 AM77 °FPassing clouds.7 mph83%29.98 "Hg6 mi
12:50 AM75 °FPassing clouds.7 mph94%29.98 "Hg6 mi
11:51 PM
Tue, Jul 26
77 °FPassing clouds.6 mph89%29.98 "Hg6 mi
10:50 PM77 °FPassing clouds.6 mph89%30.01 "Hg6 mi
9:50 PM77 °FPassing clouds.5 mph89%30.01 "Hg6 mi
8:50 PM77 °FPassing clouds.5 mph89%29.98 "Hg6 mi
7:50 PM77 °FScattered clouds.3 mph89%29.98 "Hg6 mi
Weather by CustomWeather, © 2016

See weather overviewHow to use our weather pages